KOSEN 1
1 49402U 21102H 24004.72162171 .00003862 00000-0 24732-3 0 9992
2 49402 97.4511 57.4764 0021536 87.8511 272.5184 15.08946164118326
HO-113
1 50466U 21131B 24004.80261343 .00000547 00000-0 19061-3 0 9992
2 50466 98.5400 90.6390 0003221 251.2499 108.8339 14.39278608106351
Tevel-3
1 50988U 22002E 24004.81351093 .00033731 00000-0 90824-3 0 9999
2 50988 97.4074 76.7097 0004879 234.8646 125.2142 15.37766906109603
Tevel-8
1 50989U 22002F 24004.84232242 .00031428 00000-0 84918-3 0 9995
2 50989 97.4093 76.8188 0004788 233.0493 127.0314 15.37673922109603
Tevel-5
1 50998U 22002Q 24004.80878383 .00035626 00000-0 91115-3 0 9994
2 50998 97.4069 77.4129 0005741 227.1661 132.9103 15.39336534109652
Tevel-6
1 50999U 22002R 24004.80834046 .00035820 00000-0 91675-3 0 9990
2 50999 97.4068 77.4003 0005745 226.8968 133.1797 15.39313339109653
Tevel-1
1 51013U 22002AF 24004.83118524 .00031367 00000-0 84718-3 0 9999
2 51013 97.4067 76.6305 0004722 233.5603 126.5207 15.37687729109603
NO-116
1 51031U 22002AZ 24004.66044946 .00244362 00000-0 18718-2 0 9993
2 51031 97.4122 84.4485 0004869 246.7462 113.3288 15.71374600110022
IRIS-A
1 51044U 22002BN 24004.73822580 .00011533 00000-0 46781-3 0 9997
2 51044 97.4102 72.5214 0005840 251.0270 109.0335 15.24764387109316
Tevel-7
1 51062U 22002CG 24004.83910750 .00031558 00000-0 85118-3 0 9991
2 51062 97.4087 76.7858 0004839 232.7788 127.3016 15.37728001109603
Tevel-4
1 51063U 22002CH 24004.79103021 .00031556 00000-0 85490-3 0 9993
2 51063 97.4087 76.6903 0004743 232.7077 127.3736 15.37591527109597
Tevel-2
1 51069U 22002CP 24004.81400315 .00034078 00000-0 91698-3 0 9997
2 51069 97.4071 76.6771 0004850 234.3789 125.7004 15.37785207109608
DELFI-PQ
1 51074U 22002CU 24004.77509636 .03021013 24145-5 20443-2 0 9992
2 51074 97.4109 89.8715 0008172 291.8530 68.1887 16.16702949110301
SO-115
1 51080U 22002DA 24004.17294887 .00052398 00000-0 11079-2 0 9993
2 51080 97.4361 82.1151 0006633 262.7353 97.3142 15.44964086109733
SO-114
1 51081U 22002DB 24004.18328601 .00053228 00000-0 11023-2 0 9999
2 51081 97.4355 82.1753 0006688 261.1131 98.9361 15.45571784109743
OreSat0
1 52017U 22026K 24004.55470216 .00024821 00000-0 72237-3 0 9998
2 52017 97.5075 13.9188 0020002 90.4140 269.9395 15.35212194100324
Planetum 1
1 52738U 22057G 24004.85691456 .00018511 00000-0 66558-3 0 9994
2 52738 97.5516 127.0757 0006276 12.5227 347.6168 15.28662975 89372
Foresail-1
1 52766U 22057AL 24004.25362315 .00012005 00000-0 48383-3 0 9996
2 52766 97.5657 127.0644 0010700 355.4463 4.6675 15.24942452 89260
SNUGLITE 2
1 52899U 22065F 24004.34713170 .00001325 00000-0 28546-3 0 9993
2 52899 98.0937 149.0408 0006934 313.8432 46.2194 14.60034665 80204
IO-117
1 53106U 22080B 24003.05315120 -.00000003 00000-0 00000-0 0 9997
2 53106 70.1387 250.2490 0008280 141.6982 218.4267 6.42557472 34597
SelfieSat
1 53951U 22057BC 24004.31520284 .00030720 00000-0 95324-3 0 9992
2 53951 97.5554 128.1714 0007162 0.5022 359.6226 15.33316181 89371
FO-118
1 54684U 22167C 24004.84622131 .00013911 00000-0 63198-3 0 9997
2 54684 97.5835 147.2963 0011950 2.4214 357.7077 15.20823012 59258
SSS-2B
1 56184U 23054G 24004.81334346 .00015585 00000-0 53519-3 0 9990
2 56184 97.3888 262.6776 0010931 50.4805 309.7400 15.30159574 40929
CIRBE
1 56188U 23054L 24004.65998403 .00029083 00000-0 88921-3 0 9999
2 56188 97.3835 262.8631 0009778 44.8060 315.3971 15.33774829 40930
INSPIRE-Sat 7
1 56211U 23054AK 24004.68075149 .00026351 00000-0 76488-3 0 9992
2 56211 97.3862 263.6782 0012803 26.5661 333.6236 15.35402457 40989
RoseyCubesat 1
1 56212U 23054AL 24004.79456529 .00028613 00000-0 80162-3 0 9997
2 56212 97.3864 264.0033 0012816 25.1524 335.0342 15.36495358 41015
SO-120
1 56992U 23084BU 24004.26479546 .00017179 00000-0 83291-3 0 9992
2 56992 97.5191 123.3498 0014989 241.5858 118.3866 15.18484080 31083
MRC-100
1 56993U 23084BV 24004.30379818 .00018009 00000-0 85807-3 0 9997
2 56993 97.5197 123.4669 0014935 241.4963 118.4768 15.19080722 31109
UmKA 1 (RS40S)
1 57172U 23091G 24004.85922464 .00003364 00000-0 23893-3 0 9991
2 57172 97.6391 58.6337 0016486 326.1799 33.8374 15.05291720 28755
CubeBel-2 (EU11S)
1 57175U 23091K 24004.84018165 .00005025 00000-0 35534-3 0 9998
2 57175 97.6376 58.4949 0015566 337.6424 22.4122 15.05235103 28745
VERONIKA
1 58261U 23174F 24004.16420065 .00011795 00000-0 63852-3 0 9993
2 58261 97.4807 81.1859 0014781 98.1857 262.1053 15.14692327 8681
KAFASAT
1 58317U 23174BP 24004.17493181 .00013471 00000-0 69439-3 0 9995
2 58317 97.4760 81.2859 0013581 78.1737 282.1019 15.16409319 8698
ENSO
1 58470U 23185J 24004.84075046 .00009353 00000-0 46737-3 0 9997
2 58470 97.4515 73.8430 0015204 130.9169 229.3384 15.17574504 5176
EIRSAT-1
1 58472U 23185L 24004.84142408 .00010758 00000-0 53696-3 0 9999
2 58472 97.4508 73.8372 0014949 131.8505 228.4008 15.17581295 5172
SO-121
1 58567U 23174CY 24004.53745092 .00019638 00000-0 10313-2 0 9990
2 58567 97.4772 81.5802 0016141 86.0923 274.2154 15.15635199 8743
Clark sat-1 (AMBITIOUS)
1 58613U 98067WE 24004.58442312 .00064361 00000-0 97916-3 0 9997
2 58613 51.6408 50.6164 0006556 56.5715 303.5902 15.53896053 2720
BeliefSat-0
1 58695U 24001B 24004.74596407 .00092557 00000-0 58649-3 0 9995
2 58695 9.6656 72.7065 0007207 17.7941 342.2525 15.74485948 568
